Theta_e
315 315 315 316 316 315 316 316 315 315 315 314 315 315 315 315 315 314 314 314 314 317 317 317 318 317 316 317 317 314 315 318 323 328 328 326 322 328 326 319 322 320 330 346 343 337 344 350 353 352 352 355 354 356 357 356 357 357 359 358 351 352 355 358 360 360 361 363 364 363 362 364 363 363 363 363 363 363 362 362 361 361 359 357 359 359 357 358
314 314 314 315 315 315 315 315 315 315 314 314 315 315 315 315 314 313 313 314 315 316 316 317 318 317 316 316 316 315 317 321 325 328 328 324 327 329 325 323 319 316 331 346 341 340 348 349 352 353 352 357 356 357 358 358 358 359 361 359 356 358 360 360 359 360 361 362 364 364 362 362 363 363 362 364 365 360 363 364 362 362 361 358 358 358 357 357
314 314 314 315 315 315 314 314 315 314 314 314 314 314 314 314 314 313 314 315 315 314 315 317 318 318 316 315 315 317 320 325 328 330 327 322 327 329 325 323 319 316 331 344 340 344 351 350 352 351 353 358 358 357 359 359 359 360 359 360 358 360 359 358 360 361 361 361 363 362 362 363 361 362 361 365 366 362 362 363 363 364 362 358 357 357 356 357
314 314 314 314 314 314 314 314 314 313 313 313 314 314 314 314 313 313 315 315 315 314 314 316 318 319 317 315 316 320 323 328 331 332 330 325 324 326 325 324 319 318 331 341 344 348 349 348 349 349 355 361 359 358 361 359 359 359 359 361 359 359 360 359 361 362 359 359 361 362 363 363 360 361 363 364 366 366 363 361 361 362 360 358 356 355 356 357
312 313 313 314 314 313 313 313 313 313 313 313 313 313 313 313 312 314 315 315 315 314 314 314 316 319 317 315 318 322 326 329 332 333 331 329 325 323 321 321 318 320 333 343 347 349 347 348 349 349 355 360 359 359 361 358 358 360 360 359 358 358 361 360 361 361 360 358 360 361 363 363 362 363 364 364 367 366 362 359 360 360 358 357 355 354 355 354
312 313 313 313 313 313 313 313 312 312 312 313 313 313 313 312 312 315 315 314 314 313 313 313 315 318 316 314 318 323 326 327 333 333 329 329 327 323 318 318 318 325 336 343 348 348 347 348 349 351 356 361 360 359 360 355 356 361 362 359 358 360 362 362 360 361 359 359 361 361 362 362 363 364 364 364 363 362 357 357 359 359 357 357 355 352 353 351
312 313 313 313 313 312 312 312 312 312 312 312 312 312 312 312 313 315 314 313 312 312 314 313 315 317 315 314 320 326 326 327 330 334 333 332 329 324 320 316 318 330 339 343 349 348 345 348 349 355 360 364 361 357 358 356 356 361 362 359 360 361 362 361 360 359 358 361 363 361 362 363 363 364 364 362 359 359 358 357 359 356 355 355 355 353 354 351
312 312 312 312 312 312 312 312 312 312 312 312 312 312 311 311 313 314 312 311 312 313 314 313 315 316 314 318 325 327 328 330 336 342 338 331 329 325 320 320 324 335 340 343 350 347 346 348 350 354 360 362 359 355 358 359 360 361 361 360 360 361 361 360 360 359 358 361 361 361 363 363 362 363 363 361 359 359 359 360 358 352 352 352 352 353 353 350
312 312 312 312 312 312 311 311 311 311 311 311 311 311 311 312 313 312 311 312 313 313 314 314 316 315 315 320 326 325 329 335 343 346 339 330 330 324 321 329 333 337 342 345 349 347 346 348 349 353 356 357 356 356 358 360 359 359 360 360 359 361 360 359 360 361 361 361 361 363 364 363 362 363 363 361 359 360 361 361 356 351 350 350 350 351 351 348
312 312 312 311 311 311 311 311 311 311 311 310 310 310 311 312 311 310 310 312 313 314 314 315 316 315 317 323 326 327 330 335 340 345 342 333 331 327 327 334 335 336 343 347 348 348 346 347 348 350 351 354 356 356 357 359 356 357 360 359 359 361 362 360 360 361 360 361 361 362 363 363 362 362 363 360 358 360 361 362 358 354 348 347 349 348 348 347
312 312 311 311 311 310 310 311 311 311 311 310 309 310 310 310 309 309 311 313 314 315 315 318 317 316 320 325 326 327 327 330 334 338 340 335 332 332 334 336 334 336 344 348 349 348 346 348 347 348 351 355 356 356 358 358 358 355 359 363 362 362 363 361 361 361 360 361 361 361 363 362 360 362 363 359 358 358 361 362 360 358 350 346 348 347 348 348
312 311 311 311 310 309 310 310 311 311 310 309 309 309 309 308 309 310 313 314 316 317 317 318 317 318 323 325 325 326 323 330 332 332 335 332 332 334 336 338 335 336 346 348 347 347 347 347 346 348 352 355 358 362 357 355 358 356 360 367 364 359 362 362 361 360 360 361 359 360 363 363 362 363 362 359 358 359 362 362 359 358 349 345 346 347 348 346
312 311 311 310 309 309 310 310 311 310 309 308 308 308 307 308 310 312 314 316 317 317 319 318 316 320 326 326 328 325 323 331 332 331 332 331 334 336 337 340 336 337 347 348 346 346 346 346 345 347 349 356 359 361 356 355 356 355 360 365 361 358 361 361 360 358 359 360 359 360 361 362 364 363 361 360 359 361 365 363 357 355 348 347 347 347 348 346
312 311 311 310 309 309 310 310 310 309 308 307 307 307 308 309 311 314 316 317 317 318 319 317 317 324 327 327 327 325 327 332 332 332 334 334 336 337 338 342 338 339 346 347 346 346 345 346 344 346 348 355 358 357 356 356 354 356 358 357 356 354 355 362 360 357 360 359 360 362 358 360 364 362 358 359 360 360 364 362 354 352 348 346 347 347 347 345
311 311 310 309 309 309 310 310 309 307 306 307 306 307 308 310 314 316 316 316 319 319 316 315 318 327 329 327 327 327 328 328 331 333 337 338 339 339 341 344 342 341 345 346 345 344 345 344 343 346 346 351 355 357 360 358 357 359 350 344 348 349 354 363 359 356 360 358 361 361 357 363 365 360 357 357 360 359 359 358 352 351 348 344 347 346 344 343
311 310 309 309 308 309 309 309 308 307 306 306 307 308 309 313 315 316 316 315 318 317 316 320 324 327 326 326 331 331 326 323 330 334 337 341 339 341 344 348 346 344 345 345 344 344 343 345 343 346 346 347 351 355 357 350 349 356 350 340 340 341 348 357 357 354 356 357 359 359 359 364 365 361 359 357 359 358 355 354 353 349 344 343 346 344 344 343
310 310 310 309 309 309 309 309 308 307 307 306 307 309 312 315 315 316 317 316 317 317 320 328 330 327 325 324 330 332 329 324 328 335 339 341 340 345 346 346 344 343 344 343 343 343 343 345 345 344 348 349 350 353 348 339 335 342 352 349 344 341 342 346 353 353 352 355 357 357 360 362 363 363 360 358 359 360 355 354 354 348 343 344 344 344 344 344
311 310 310 309 309 309 309 309 309 308 308 307 308 310 314 318 317 319 321 320 321 322 323 328 330 327 327 325 325 328 332 328 330 337 339 341 343 346 345 342 342 341 343 342 343 343 343 344 345 348 350 349 352 353 344 339 336 334 347 352 344 341 341 342 350 351 350 352 352 360 366 364 362 361 361 362 361 361 359 355 353 347 343 343 342 343 342 342
310 310 310 310 309 309 309 310 309 309 309 308 309 313 317 320 320 321 324 327 327 327 327 328 326 326 323 322 322 324 331 332 333 339 341 343 345 344 341 340 340 341 342 343 344 343 343 346 343 342 345 348 353 351 346 347 344 343 351 353 342 340 345 345 348 349 350 352 350 361 368 368 366 362 362 364 361 360 359 356 353 346 344 342 340 341 340 342
310 310 310 310 310 309 310 309 309 310 309 311 312 316 321 326 329 328 327 328 328 326 326 326 324 322 320 322 325 330 336 335 336 339 341 343 343 342 340 338 340 342 344 344 343 343 343 344 341 341 343 348 350 347 349 347 348 353 354 353 346 343 348 350 349 349 348 350 349 358 364 366 368 365 367 368 362 358 358 358 354 346 345 343 343 343 342 346
311 310 311 310 310 310 309 309 309 310 310 311 313 318 323 328 331 330 329 329 329 327 325 325 324 322 320 325 333 338 337 336 337 339 342 342 341 342 338 339 344 344 344 343 341 342 344 340 340 344 345 348 347 343 349 345 348 357 356 352 344 339 346 351 350 348 346 350 349 352 356 359 365 364 367 369 364 360 358 358 354 347 347 343 345 347 345 348
310 311 311 310 310 310 310 310 309 310 310 312 315 318 322 324 325 326 326 326 329 329 326 325 323 322 322 329 334 334 332 334 337 338 342 341 339 341 340 340 343 344 343 340 340 340 340 339 340 344 343 342 344 344 347 344 351 358 355 345 335 336 345 349 350 349 346 354 354 351 352 354 359 363 364 364 364 364 359 356 353 348 349 347 346 348 345 348
311 311 310 310 310 309 310 310 310 310 311 314 318 320 322 323 324 324 324 324 326 328 327 323 323 322 322 328 331 331 331 333 334 337 340 339 338 341 341 341 342 342 341 339 340 334 330 338 341 341 341 340 345 347 347 345 348 354 347 334 330 338 343 341 348 351 349 358 361 353 349 350 352 360 363 359 359 365 362 359 359 350 348 350 347 348 347 347
311 310 310 310 310 310 310 310 310 312 313 315 317 319 321 323 324 323 324 325 326 327 325 322 321 321 321 326 329 328 330 332 332 337 339 338 338 339 340 342 341 340 340 340 340 336 332 338 341 340 341 342 343 344 346 344 342 345 344 335 332 339 344 342 347 352 349 353 361 356 343 346 352 355 361 359 357 364 365 363 362 353 347 349 347 348 347 347
311 310 310 310 310 311 310 310 314 317 318 318 319 320 320 322 324 323 325 326 324 326 325 321 320 320 321 324 324 324 327 329 330 335 340 338 336 339 338 341 340 339 340 339 339 339 337 338 338 337 342 342 341 343 346 344 335 334 342 343 338 341 347 350 352 350 343 342 352 352 335 336 347 351 355 356 357 361 362 361 359 353 350 348 348 350 347 347
310 310 310 310 310 310 311 317 322 321 321 323 323 323 322 322 324 323 325 325 322 324 324 320 318 319 321 321 322 322 321 324 328 334 340 338 335 338 337 338 339 338 339 340 338 336 337 338 337 337 339 340 342 340 345 345 333 327 338 344 342 343 348 350 350 343 335 337 350 350 340 338 341 345 353 353 354 355 354 359 360 356 355 348 346 351 348 348
309 310 310 310 311 310 314 322 323 322 324 324 324 324 322 324 325 324 325 320 317 323 323 320 318 319 320 322 322 320 318 321 326 333 338 336 335 338 337 338 339 336 337 337 330 332 338 339 335 338 337 340 340 336 342 346 334 328 339 344 342 342 347 344 347 347 343 341 347 349 345 341 336 339 351 351 351 354 353 361 366 364 361 352 346 350 347 346
309 310 311 312 312 310 314 319 320 322 323 323 323 323 322 324 324 325 325 317 318 325 323 319 320 319 318 322 323 320 320 322 323 330 337 336 334 336 337 338 337 336 338 332 324 330 338 337 335 337 335 336 338 337 342 344 337 336 342 344 341 341 346 342 347 353 355 345 341 344 339 340 339 341 347 351 348 352 356 362 368 368 361 355 350 348 348 346
310 311 313 314 313 312 313 313 317 322 323 323 322 322 323 324 324 326 326 321 320 324 323 320 322 320 319 323 323 320 322 323 323 329 337 335 334 336 336 336 335 336 336 332 329 333 337 336 334 335 335 336 338 339 341 342 343 342 340 342 341 341 342 341 347 348 350 344 338 339 336 342 346 343 340 346 342 346 357 360 362 363 357 355 350 347 348 346
311 313 314 313 314 314 314 314 318 320 321 322 321 323 323 324 325 322 320 323 322 321 322 321 321 320 321 322 322 322 321 322 325 329 334 333 333 335 335 335 333 334 336 336 334 334 334 334 334 335 336 336 337 340 340 341 342 340 341 342 337 340 341 340 343 341 337 336 336 336 335 338 342 339 336 343 342 345 356 357 358 358 355 355 350 347 347 345
313 315 314 313 316 318 319 321 321 320 320 321 321 323 323 326 327 319 317 324 322 322 323 322 321 321 322 322 323 321 320 322 326 331 333 332 332 333 334 334 333 332 332 332 333 335 335 333 333 334 334 336 336 337 338 340 340 338 341 337 328 333 340 334 331 333 331 327 328 334 338 334 333 338 340 347 348 345 352 354 355 355 355 356 351 347 347 344
314 316 315 315 318 319 321 323 324 322 322 322 322 324 325 325 322 318 321 320 318 321 324 323 323 321 321 323 323 322 321 321 325 331 333 331 331 333 333 331 332 327 321 323 327 331 333 336 334 332 335 337 333 332 334 336 337 338 335 328 320 323 333 336 330 329 329 325 325 335 338 332 333 339 342 347 349 346 349 351 351 351 353 354 352 349 347 345
316 317 316 316 317 319 322 324 324 322 323 323 323 325 328 324 318 318 321 319 318 322 326 324 322 321 322 321 322 322 320 321 324 328 330 330 330 331 331 332 332 328 321 321 321 318 324 332 334 333 333 334 334 329 324 327 333 334 329 321 319 322 333 342 336 326 324 323 325 332 334 329 328 336 345 347 347 347 348 348 351 351 352 353 352 349 347 346
318 318 317 317 317 318 321 322 322 322 323 324 323 326 329 325 322 319 320 320 322 324 325 325 323 323 322 320 322 322 320 319 323 326 327 329 327 326 329 331 332 331 328 323 318 316 315 319 328 332 329 330 335 331 328 331 332 335 336 329 323 323 328 333 331 324 324 324 321 327 339 333 325 334 345 344 345 348 346 347 351 350 350 352 353 349 347 347
320 320 319 319 319 318 320 320 322 323 324 324 325 328 327 321 320 319 320 322 324 324 325 325 325 322 321 321 323 323 320 318 322 327 327 327 325 324 327 329 330 332 329 321 318 319 313 315 327 332 331 331 332 333 334 331 327 333 337 330 326 330 330 326 325 322 321 324 322 323 338 344 336 337 345 343 346 347 345 348 351 349 350 350 352 349 347 346
321 323 322 323 324 323 321 320 321 323 324 326 327 326 327 324 321 320 321 322 324 324 324 323 323 319 316 319 322 323 322 320 322 325 325 325 326 325 326 328 330 329 329 324 321 319 312 314 328 330 330 332 330 332 334 327 326 330 330 328 332 340 336 325 326 326 320 323 326 322 326 334 332 335 339 338 342 348 347 349 348 349 350 350 351 350 347 346
322 326 327 328 327 324 321 320 322 322 324 327 328 327 330 329 325 323 323 323 322 324 323 317 319 318 314 314 318 322 323 320 321 321 319 323 323 324 326 325 327 329 329 326 324 324 317 314 327 330 327 330 330 330 332 332 331 326 323 329 337 341 338 329 328 328 322 322 328 324 322 327 325 327 334 338 341 347 351 350 350 349 349 351 352 350 348 346
324 328 330 329 325 322 322 321 323 324 324 327 329 330 331 327 325 324 324 323 322 324 323 317 318 321 317 314 316 323 323 317 319 320 318 320 320 323 328 325 326 329 328 327 324 327 324 314 321 330 328 329 331 329 326 329 332 330 328 333 337 337 335 326 323 326 324 325 331 329 324 324 321 322 329 336 339 348 352 350 352 351 348 351 351 348 349 349
324 328 330 327 324 323 323 322 323 325 326 327 328 330 329 325 324 323 323 323 323 323 324 321 322 322 320 318 318 324 323 316 319 320 317 319 320 322 326 326 325 328 327 328 326 327 328 316 315 326 330 328 329 325 317 321 329 331 333 333 334 337 333 328 326 325 322 325 331 331 323 317 321 329 331 337 340 346 350 350 352 351 347 350 348 348 349 349
326 329 329 325 323 324 325 324 325 325 325 328 329 329 327 323 323 323 323 323 323 324 325 326 325 323 322 323 323 324 323 320 321 320 317 321 321 322 326 325 325 327 327 328 326 326 329 321 313 322 328 323 321 323 320 320 326 326 324 325 326 329 328 329 329 324 325 329 329 329 323 317 325 339 337 340 342 340 346 348 350 349 348 348 348 349 349 349
327 330 328 324 324 325 326 324 323 325 325 325 327 328 327 325 324 322 322 324 323 324 325 325 327 325 324 325 324 325 325 323 321 321 321 322 320 320 325 325 326 326 327 326 327 326 325 323 315 314 318 315 317 328 329 325 330 328 325 323 324 329 328 324 326 324 330 333 327 325 321 319 329 343 341 343 345 344 342 344 348 348 346 347 345 346 351 353
328 332 328 324 325 326 326 324 324 324 324 324 325 327 327 326 324 322 324 325 323 325 325 325 325 326 326 326 326 325 324 322 321 321 320 322 322 322 324 327 326 326 326 327 325 327 327 325 317 312 315 320 324 330 328 328 331 329 332 332 329 332 326 320 321 322 328 333 329 325 320 323 335 343 340 344 351 351 347 339 345 347 344 346 344 345 354 356
329 331 327 324 325 325 325 327 329 327 325 325 325 324 326 327 323 323 325 326 326 324 325 325 325 325 327 327 326 328 324 321 321 321 322 323 324 324 325 326 325 325 327 326 326 327 327 324 315 312 319 324 327 330 328 329 330 325 328 334 333 332 329 327 325 326 333 335 336 332 324 325 337 346 338 341 350 353 351 344 343 343 344 346 348 355 362 362
326 327 327 325 325 324 324 329 332 333 331 330 328 327 325 325 324 323 325 326 327 326 325 327 326 325 326 326 327 328 324 320 319 321 323 322 323 325 325 324 325 325 325 326 327 326 323 321 317 312 314 316 319 322 323 324 324 324 326 332 333 333 334 334 330 327 330 328 336 346 335 327 337 348 340 339 345 347 350 351 348 344 344 349 355 363 367 366
325 328 328 326 325 326 325 327 330 332 333 332 333 331 328 325 324 323 324 326 328 329 329 328 327 327 327 327 326 326 326 322 320 321 323 323 325 324 324 324 325 323 324 332 335 326 322 323 320 312 310 312 313 313 315 318 321 323 328 329 332 335 333 331 325 321 321 321 331 346 344 338 342 345 340 341 342 342 347 350 348 345 345 351 357 361 364 368
327 331 331 329 328 327 326 327 328 329 332 333 333 332 329 326 326 325 323 325 328 329 329 328 329 329 328 328 328 327 327 326 324 324 323 323 324 324 324 325 324 323 332 343 338 327 324 324 323 318 313 313 313 316 322 325 320 318 322 324 328 333 335 332 322 317 321 321 323 337 344 334 335 339 341 341 342 342 344 346 348 351 352 355 358 359 361 365
329 332 330 330 331 331 330 329 330 330 332 333 332 332 330 327 328 328 326 324 326 327 327 327 329 329 328 329 328 326 327 327 326 326 324 325 326 326 325 324 323 330 341 338 327 324 325 319 320 322 319 319 321 323 327 326 320 317 320 322 326 329 331 326 320 321 326 320 319 338 342 326 328 340 340 341 342 340 341 345 350 354 358 361 361 359 360 362
329 328 326 327 329 331 333 333 332 331 332 333 332 332 331 330 329 330 329 326 325 327 328 328 328 328 328 328 327 326 327 326 325 327 327 326 325 327 327 325 325 332 335 326 322 327 323 317 321 323 320 324 327 324 327 327 324 324 323 322 325 326 326 323 320 327 329 318 322 343 342 328 333 340 337 341 341 338 342 348 350 354 362 365 368 361 358 358
325 326 325 325 325 326 329 328 328 328 330 332 332 332 331 331 330 329 330 329 328 328 327 328 329 328 328 329 330 330 329 324 324 331 335 331 327 328 329 327 325 327 328 322 324 328 321 318 324 324 319 322 325 325 326 326 324 324 324 326 327 327 327 325 325 330 331 324 332 346 340 335 339 338 338 343 340 339 346 348 348 353 361 367 369 362 360 359
324 324 325 324 324 325 325 326 325 326 326 328 330 331 331 330 330 330 331 332 331 329 328 328 330 330 331 332 331 331 331 330 330 333 335 334 333 334 334 333 328 327 326 324 325 326 320 318 326 325 316 317 323 325 324 325 323 321 322 327 329 327 327 326 328 329 329 328 337 344 336 338 344 341 340 342 340 343 348 347 351 356 359 369 372 368 365 366
323 324 325 324 326 327 327 328 327 325 326 326 329 331 331 330 330 331 331 331 330 331 331 330 330 331 333 332 331 331 332 333 334 333 333 335 335 336 337 336 332 332 330 324 324 326 322 320 323 323 313 312 319 323 321 323 323 317 319 324 324 323 325 325 328 331 328 326 331 333 331 338 348 345 342 342 341 343 345 346 350 355 358 368 370 368 368 368
324 323 324 325 328 329 327 328 327 325 326 326 328 331 332 331 330 329 330 330 328 329 331 331 331 332 332 333 332 331 332 332 332 331 331 333 332 333 337 335 332 337 339 331 324 326 327 322 320 318 311 311 318 321 320 319 315 311 315 323 325 325 326 327 328 331 332 328 326 328 333 343 348 346 340 341 340 341 346 344 344 355 363 364 363 365 366 368
Wind_Speed
17 17 17 17 16 17 17 16 16 17 16 16 16 16 15 15 15 15 15 15 15 15 16 16 16 16 16 16 16 14 12 12 14 12 17 15 13 14 12 14 18 16 18 18 17 18 17 16 14 12 9 5 4 3 2 3 3 3 3 4 6 6 5 5 6 6 5 7 6 3 2 2 1 0 2 6 7 7 7 7 8 7 4 5 7 12 16 21
18 18 18 17 17 17 17 16 17 17 16 16 16 16 16 15 15 15 15 15 15 15 15 16 16 16 16 15 15 13 13 15 15 17 25 20 12 12 13 14 16 19 21 20 20 20 16 13 12 11 6 3 4 3 2 2 4 4 4 5 6 6 6 7 8 8 6 6 8 7 2 1 4 5 1 5 11 6 4 6 8 7 4 7 12 15 18 20
19 19 18 18 18 18 17 16 17 17 17 17 17 17 16 16 15 15 15 15 15 15 15 16 16 16 16 14 12 10 12 16 13 18 24 22 21 18 14 15 16 21 23 20 20 19 14 10 12 10 5 4 2 1 1 3 4 4 5 6 6 6 8 8 8 8 7 7 8 6 1 2 5 8 3 3 11 10 7 7 10 11 10 12 15 17 19 20
18 18 18 18 18 18 18 17 18 18 17 17 17 17 17 16 15 16 15 15 15 15 16 16 16 16 15 12 9 9 11 14 7 7 10 14 24 23 17 16 18 22 23 19 18 17 13 10 11 10 4 2 1 2 5 6 3 2 4 6 8 8 9 8 7 10 8 8 7 5 4 3 5 6 6 7 9 9 9 9 12 15 16 17 16 16 19 18
18 18 18 18 18 18 18 18 18 18 18 17 18 18 17 16 16 16 15 15 15 15 16 16 16 16 14 10 6 8 10 6 2 5 6 8 18 22 19 17 19 24 23 19 15 15 14 11 11 9 5 3 2 3 5 5 3 4 6 9 11 10 10 8 8 9 7 7 7 5 5 2 6 5 7 9 7 6 9 12 13 14 17 18 17 17 18 19
18 18 18 18 18 18 18 18 19 18 18 18 18 18 17 17 16 16 15 15 16 15 15 16 16 15 13 8 5 8 7 3 3 6 9 6 10 19 20 17 20 25 23 20 16 14 13 10 9 7 5 3 3 6 5 5 5 6 7 8 11 11 9 9 10 8 6 7 7 4 3 2 5 6 7 7 4 4 9 14 13 13 16 17 17 17 18 20
19 18 18 18 18 18 18 19 19 19 19 18 19 18 18 17 16 16 15 15 16 16 16 16 15 15 12 8 6 7 8 10 7 8 8 2 6 14 20 18 22 25 22 20 16 14 11 10 10 5 2 1 4 8 5 5 7 7 8 10 11 12 9 9 11 8 6 5 5 4 3 4 7 6 6 7 5 8 11 12 12 13 16 16 16 17 18 19
19 19 18 18 19 18 19 19 19 19 19 19 19 18 18 17 17 16 16 16 16 16 16 15 15 12 10 8 7 7 10 10 4 9 4 4 5 11 19 20 23 25 22 20 16 13 11 11 10 4 1 5 7 8 3 1 5 6 7 11 10 9 8 9 12 9 5 4 3 4 5 3 6 5 7 7 5 9 13 12 13 14 16 16 16 17 16 17
19 19 18 18 19 19 19 20 20 19 19 20 19 18 18 17 16 16 16 17 17 16 15 15 14 9 6 6 8 6 6 2 4 6 8 7 10 17 22 22 24 24 20 19 16 14 9 9 9 5 5 7 7 9 4 2 3 4 3 7 9 8 6 6 11 7 4 2 3 3 4 2 4 5 6 4 2 7 11 12 14 15 17 16 17 18 17 18
19 18 18 19 19 19 20 20 20 20 19 20 20 19 18 17 17 16 16 17 16 16 14 13 12 6 5 7 8 6 0 3 3 4 8 8 15 23 25 22 25 24 19 17 16 14 10 9 6 4 7 7 6 8 4 4 6 1 4 4 6 8 5 5 8 5 3 2 3 2 5 5 4 3 3 4 4 8 10 9 9 10 16 17 17 17 16 17
19 18 19 20 20 20 20 20 20 20 20 20 20 19 18 17 16 16 17 17 16 15 12 12 9 4 8 8 8 5 3 4 1 2 6 13 21 27 27 23 24 24 19 15 16 15 13 12 5 2 5 3 5 7 4 7 10 3 2 4 6 7 5 5 6 3 1 1 2 4 7 6 2 1 6 8 7 8 9 8 4 7 13 17 17 16 13 14
19 19 19 20 22 21 20 20 21 21 21 21 20 19 18 17 17 17 17 15 15 13 9 9 6 4 8 8 10 15 10 7 1 3 7 16 20 24 24 21 22 24 19 14 15 16 15 12 8 8 6 1 2 5 6 9 10 5 0 2 5 4 4 4 4 1 1 1 2 6 6 5 2 3 9 10 8 9 9 7 5 9 13 15 15 14 12 13
20 20 20 21 23 22 20 20 21 21 21 21 20 19 18 17 17 17 15 14 13 11 9 7 4 5 8 6 9 15 13 6 2 5 8 15 16 18 19 17 20 21 19 16 15 15 15 13 13 12 5 1 2 1 4 8 8 7 2 2 5 3 2 3 2 0 4 2 2 4 2 4 4 5 10 8 7 11 8 7 8 10 13 14 14 13 12 14
20 20 21 23 24 21 20 21 21 22 22 22 20 19 18 17 16 15 13 13 11 9 8 5 6 6 7 9 11 7 7 4 3 7 10 15 15 17 18 16 18 19 19 18 15 12 13 14 14 11 5 5 4 2 2 6 6 6 4 3 3 2 0 2 2 2 5 3 2 1 1 5 5 5 9 6 6 12 10 10 12 10 11 13 13 13 14 15
20 21 22 24 24 22 21 22 22 23 22 22 21 19 17 15 14 12 10 10 8 6 5 5 8 7 6 11 12 7 8 7 7 10 12 16 16 15 17 16 16 18 18 16 14 12 12 12 10 8 6 7 5 1 3 5 4 3 4 3 2 2 1 5 4 4 4 2 1 1 0 4 3 3 6 6 7 12 12 12 13 13 14 15 13 14 15 14
22 23 24 25 25 24 23 23 23 24 23 22 21 18 14 12 10 9 8 6 4 4 6 5 11 12 7 5 3 6 10 10 10 12 13 16 16 14 15 14 14 16 17 14 12 12 11 9 8 8 8 8 5 1 1 5 4 1 2 5 6 5 0 4 4 5 6 4 2 3 4 3 1 3 5 6 6 8 11 12 12 14 15 15 13 12 13 12
24 25 26 26 27 26 25 24 24 24 23 22 21 16 10 8 7 5 3 1 2 6 9 8 8 10 8 6 3 6 10 11 12 14 15 16 15 14 13 11 11 14 15 13 12 12 11 8 7 7 7 6 3 1 3 5 4 1 2 3 8 8 2 2 5 8 8 6 5 6 5 5 2 5 6 6 6 6 8 9 11 14 14 14 13 13 13 12
25 26 26 27 27 26 25 24 23 23 23 22 19 13 8 6 6 5 2 3 4 5 10 13 10 6 8 11 11 10 11 13 13 14 15 16 16 13 12 10 10 12 12 10 11 11 9 6 7 6 6 6 4 3 4 6 7 4 4 2 7 7 2 4 6 9 9 7 7 5 5 5 3 3 4 5 5 6 7 8 11 14 15 14 13 13 14 13
26 26 27 27 27 27 25 23 23 23 23 20 15 12 7 5 6 7 8 7 7 6 5 6 11 4 3 7 14 12 11 13 14 14 14 15 15 13 11 11 10 11 10 8 9 10 8 6 6 7 7 6 5 6 6 10 10 5 5 4 6 6 5 4 8 11 11 9 8 5 4 4 2 2 3 5 6 8 8 8 11 13 14 14 14 14 14 13
27 27 27 27 27 27 26 24 23 22 21 19 17 12 6 4 5 6 8 10 11 11 8 5 16 10 4 6 9 6 12 13 11 13 15 15 14 12 11 11 10 10 9 8 8 9 8 7 7 7 8 6 8 10 9 14 7 9 4 7 4 5 7 2 9 11 11 8 8 8 7 7 5 4 6 6 6 10 9 10 13 14 13 14 14 15 15 13
27 28 27 27 27 27 26 25 23 21 18 17 15 9 5 3 3 0 3 10 16 19 18 11 15 14 9 3 8 9 9 10 10 11 14 15 14 11 10 11 11 8 9 12 9 7 7 8 9 10 11 11 13 12 10 14 3 11 3 6 2 5 4 2 4 11 9 4 8 12 10 9 9 7 8 8 8 11 10 12 14 15 14 14 15 16 15 12
28 27 27 26 26 26 25 23 22 20 17 13 10 9 8 9 8 6 5 8 13 19 20 16 14 13 8 2 7 10 8 9 12 12 14 15 13 11 10 11 11 8 10 12 9 8 8 8 12 13 14 14 13 11 11 11 5 7 4 4 2 3 2 3 2 9 7 1 6 12 10 9 13 13 11 12 11 10 11 13 14 15 15 13 15 16 15 14
29 27 27 25 25 24 23 23 20 19 15 11 11 11 12 9 9 10 8 7 8 14 17 15 13 11 8 4 5 10 11 10 12 12 15 15 12 11 11 11 12 11 11 11 10 9 7 9 13 12 11 11 9 9 7 7 5 2 6 5 2 2 2 2 2 6 4 2 2 5 5 5 11 16 14 16 14 8 9 10 11 13 15 14 16 16 15 16
29 28 27 24 23 22 21 21 18 16 15 15 17 18 17 13 12 12 8 6 7 9 15 16 13 10 11 8 6 9 11 9 11 13 16 15 12 11 11 11 12 12 11 13 14 12 11 11 11 6 6 9 9 7 2 2 4 5 5 8 6 4 7 4 4 7 4 4 2 1 3 4 7 12 13 14 14 8 7 7 12 15 15 14 16 17 15 16
30 27 25 22 21 19 18 18 13 11 11 14 17 17 18 16 11 10 7 6 7 7 14 16 12 10 12 10 7 9 10 9 11 12 16 16 14 11 10 9 9 11 13 16 15 12 13 13 13 10 7 7 10 7 4 4 5 7 5 8 10 4 8 7 6 8 4 2 5 4 4 4 8 12 11 12 13 13 13 13 15 16 14 14 14 16 16 15
31 26 23 20 18 16 13 9 5 7 9 13 12 8 10 11 7 7 5 5 5 7 11 12 10 10 13 11 8 8 10 9 11 13 18 17 16 11 9 8 7 11 13 13 11 8 9 12 13 13 11 9 10 9 7 6 5 6 3 4 12 7 12 13 10 8 2 1 4 6 4 1 6 11 12 13 14 15 17 15 12 8 8 13 14 14 15 15
32 26 23 19 15 10 6 4 5 5 5 5 4 2 3 5 4 5 4 5 5 8 10 9 8 11 13 12 11 9 7 5 10 13 18 17 16 12 11 10 8 10 11 8 7 6 9 14 13 12 12 10 8 8 6 6 6 7 5 5 13 10 9 15 11 5 1 1 3 7 6 1 3 8 12 15 14 15 15 10 5 4 6 10 14 15 16 16
31 26 22 18 12 9 9 8 11 7 3 6 2 2 0 2 4 4 5 4 4 7 8 7 5 7 9 10 15 12 5 4 9 12 16 17 16 12 12 14 12 11 11 9 8 7 9 12 12 11 11 7 7 8 5 6 7 7 9 10 11 12 7 11 8 5 0 1 3 7 8 4 2 3 9 14 15 15 15 11 6 6 8 11 14 17 16 17
29 24 21 16 9 9 12 11 12 8 5 9 5 4 2 4 5 4 5 3 4 4 4 6 5 6 9 10 14 14 9 6 8 11 15 17 17 13 10 13 16 14 13 12 10 10 9 8 8 9 8 6 8 9 8 9 8 8 11 12 10 12 12 4 8 7 4 2 4 8 8 4 2 3 7 10 14 15 13 11 10 11 13 15 15 16 16 16
26 21 19 10 3 4 8 12 13 9 6 9 8 6 5 6 5 5 5 2 5 6 4 6 8 11 13 11 12 14 13 10 6 10 14 13 16 16 11 11 14 13 13 13 13 13 12 10 8 7 7 8 9 10 7 7 8 9 11 12 11 9 9 2 6 6 3 2 6 12 13 7 3 5 8 10 14 16 14 13 13 15 17 17 15 15 17 15
22 18 15 5 5 3 5 6 6 6 6 9 8 7 7 4 4 5 3 2 4 7 7 8 11 13 15 14 11 12 14 12 7 10 11 10 13 15 11 9 9 8 10 10 11 13 14 14 10 7 8 10 11 10 9 7 7 9 8 9 9 4 4 3 2 2 1 4 5 13 17 11 5 5 8 13 16 17 18 17 19 20 19 17 15 15 16 15
19 15 10 5 8 4 6 3 6 5 4 6 7 6 5 4 6 6 3 4 4 7 8 9 12 13 16 15 11 13 14 12 10 10 10 10 10 12 12 10 7 6 8 7 8 11 12 12 11 11 11 11 10 9 8 9 8 9 8 7 8 2 3 3 2 2 1 6 6 9 17 10 7 10 11 14 17 18 19 19 20 22 21 18 15 15 14 14
16 12 6 4 8 8 7 7 7 5 4 5 6 5 5 5 6 4 3 3 1 4 7 9 13 13 15 14 11 14 14 12 11 11 11 11 10 12 15 15 13 9 8 7 8 8 8 11 14 14 11 10 11 8 7 7 6 8 7 6 6 2 2 1 3 4 2 5 9 2 13 7 8 11 13 15 18 19 19 20 21 21 22 20 17 15 14 15
13 10 4 2 5 10 8 8 5 5 5 6 6 5 6 6 4 1 2 3 4 3 5 9 13 12 13 12 11 13 13 12 12 11 11 12 10 10 13 17 18 14 8 8 8 6 8 8 10 12 10 11 13 11 10 9 6 6 7 6 4 1 1 1 3 4 3 4 8 5 4 5 7 5 13 17 18 19 18 18 20 20 20 19 18 16 15 15
10 9 5 4 8 9 9 8 5 5 6 5 5 6 6 6 3 3 1 4 2 2 6 7 9 11 11 11 12 13 11 10 13 12 10 11 10 9 10 13 18 16 11 8 6 7 9 8 8 14 13 11 13 12 11 11 8 6 6 6 2 4 5 2 3 5 3 4 5 4 0 5 7 6 10 16 16 19 19 18 19 19 18 18 17 17 16 14
9 8 5 9 10 7 7 7 5 6 6 5 6 5 6 7 4 7 5 4 4 2 4 7 7 8 9 8 10 14 13 10 12 11 9 11 11 12 12 10 15 18 13 9 6 6 7 7 11 13 10 8 10 10 11 10 6 4 3 3 1 5 7 4 2 5 3 3 3 2 2 4 7 7 5 10 13 19 20 18 18 18 19 19 16 16 16 15
8 7 7 9 8 7 8 7 5 6 6 5 6 5 8 6 4 6 3 5 5 3 2 4 7 7 8 8 8 12 14 11 11 9 8 10 11 12 14 12 13 18 17 13 8 7 6 7 13 11 9 9 10 7 9 11 8 7 2 0 2 3 5 2 3 3 3 2 4 4 4 5 6 4 5 9 12 20 20 17 17 17 18 20 17 16 17 16
9 10 9 6 7 9 9 8 6 6 5 6 8 9 9 4 4 4 3 4 4 5 7 5 5 7 8 7 9 12 13 9 9 9 8 8 9 12 14 12 12 16 19 17 10 7 6 7 13 11 9 9 9 5 8 10 12 12 5 1 1 0 4 3 3 2 2 1 2 5 6 5 5 4 5 9 12 19 20 18 17 18 18 17 17 17 18 15
10 10 6 8 10 9 10 9 7 6 5 7 7 6 7 4 1 3 3 3 6 6 7 7 4 8 8 7 8 12 13 11 9 8 8 6 7 12 14 11 12 15 17 17 12 7 8 7 8 4 6 6 8 7 8 8 12 12 9 5 5 4 2 2 1 2 1 1 2 4 8 2 4 2 3 7 11 16 18 17 18 19 18 16 16 16 16 14
9 7 2 12 12 10 10 8 6 5 6 8 7 6 6 4 1 1 1 4 5 4 6 8 6 3 5 8 7 9 12 12 10 8 7 7 7 10 13 11 11 14 16 16 13 9 8 8 8 4 6 5 6 7 8 8 7 9 8 7 6 3 2 3 2 1 2 1 2 2 5 2 4 7 9 8 4 10 16 16 16 19 18 16 17 16 13 12
7 6 3 12 12 11 10 6 6 6 6 8 9 8 4 6 5 3 3 4 4 5 6 9 9 6 6 9 6 7 10 9 11 9 6 8 8 5 8 11 11 12 13 14 13 10 7 7 8 7 5 5 6 8 9 10 8 6 6 6 5 3 2 2 1 1 3 2 1 2 3 2 4 9 10 8 4 2 10 16 15 17 20 18 17 16 13 11
7 4 6 14 14 12 8 5 5 5 7 7 9 9 4 4 6 8 6 5 6 6 6 7 9 8 8 8 7 4 8 8 9 10 7 8 10 7 8 12 11 11 10 10 11 11 8 6 7 8 6 6 7 11 12 11 12 8 5 4 4 2 2 1 1 1 3 2 3 4 3 2 4 10 11 8 7 7 4 11 14 15 18 18 18 17 14 13
5 2 8 16 15 11 6 6 5 6 7 8 10 10 7 5 7 7 6 6 6 5 5 6 7 8 7 7 10 7 6 9 9 10 9 9 10 8 8 12 11 11 9 7 9 11 8 6 7 8 8 11 11 6 10 11 11 9 6 7 5 5 3 1 1 2 2 2 3 2 2 4 4 8 13 11 6 4 6 1 7 11 15 16 16 16 13 11
6 4 6 12 14 10 6 5 5 4 4 9 12 9 7 6 6 8 7 5 5 5 5 6 7 7 6 7 10 9 3 5 9 11 10 7 8 8 7 9 9 10 8 6 7 8 7 6 7 7 7 7 8 6 5 9 9 7 6 6 7 7 6 4 4 4 4 6 7 3 3 5 6 5 11 17 8 3 5 5 5 6 13 14 13 12 11 10
7 5 4 9 12 8 7 6 6 6 5 9 12 10 9 7 7 10 10 8 7 5 5 6 6 5 5 6 8 8 9 6 7 10 10 7 7 8 9 8 8 9 10 8 7 7 6 6 7 6 7 6 5 6 6 6 6 4 7 8 7 8 9 7 5 5 3 5 11 6 3 7 10 4 9 15 16 9 9 5 4 4 10 13 13 10 10 9
6 4 2 6 9 6 7 8 8 8 6 7 8 9 10 8 7 9 9 9 8 8 8 7 6 6 7 8 8 7 10 10 5 6 9 9 7 9 13 11 8 9 7 6 5 6 5 7 9 10 10 9 8 9 6 2 5 7 9 12 12 10 10 9 6 4 5 4 6 7 6 8 8 1 8 9 10 12 12 9 4 6 9 12 14 12 9 9
5 5 3 0 4 5 6 7 8 9 6 6 4 5 8 8 4 5 8 7 9 8 8 8 7 8 8 8 9 8 9 10 7 6 9 10 7 6 12 10 8 6 4 4 6 6 4 7 10 12 14 13 15 16 13 11 11 11 11 13 14 13 11 10 8 7 6 4 3 5 7 8 5 0 2 4 6 6 10 11 7 4 8 6 11 15 12 11
5 5 5 5 2 6 4 3 6 8 9 7 5 6 9 9 7 4 5 6 8 6 6 8 9 11 10 8 6 7 8 10 10 7 7 9 6 2 7 6 8 7 4 5 9 6 5 7 9 11 13 14 16 19 18 17 14 10 10 9 11 15 14 12 12 11 9 6 4 9 9 8 7 5 6 2 7 6 8 9 9 7 8 5 8 15 16 11
6 5 6 7 5 7 8 7 8 10 10 8 6 8 9 10 10 6 3 4 7 7 7 8 8 8 9 7 4 6 7 6 6 5 8 7 5 1 1 5 8 9 9 8 8 7 6 7 7 11 12 13 16 17 18 18 15 12 11 10 11 12 13 14 13 11 9 6 6 13 11 8 7 6 4 3 6 6 6 6 7 6 6 6 5 11 16 14
6 5 7 8 8 8 9 9 8 8 8 7 7 8 9 11 10 5 3 5 7 6 6 8 8 6 7 8 6 8 5 4 5 4 8 9 5 4 4 5 6 8 12 10 8 8 7 6 8 10 10 12 14 15 17 18 15 13 9 8 12 12 10 12 11 9 8 7 11 15 10 6 4 4 4 3 5 3 3 4 6 4 3 7 3 6 11 17
9 10 9 7 7 7 8 8 7 7 7 6 7 5 7 10 7 4 4 6 9 8 4 6 7 6 8 11 10 7 2 5 7 5 6 9 6 2 0 5 8 6 7 8 8 8 8 7 8 9 8 10 12 14 17 18 16 15 11 10 11 11 9 10 8 9 10 9 12 14 9 6 6 6 8 6 7 5 1 1 2 3 6 11 4 11 9 16
12 11 10 7 7 7 8 8 7 7 6 5 4 4 4 7 6 5 5 5 10 11 4 5 7 6 7 10 7 6 6 6 9 9 7 10 10 5 5 5 7 7 6 8 7 7 8 6 7 8 7 8 12 14 15 15 14 13 12 13 14 12 10 9 8 9 10 10 9 8 7 7 9 11 12 10 9 8 4 2 2 2 7 12 11 11 10 12
Wind_Direction
345 343 343 342 341 341 340 339 339 340 338 337 338 337 336 334 331 329 327 323 325 326 325 327 326 328 325 324 325 328 335 312 295 268 239 240 224 228 251 216 204 192 173 175 178 175 185 198 200 203 206 199 223 221 194 223 235 246 247 255 260 270 299 347 327 316 317 304 317 333 345 7 268 278 91 129 113 112 150 136 115 118 118 155 174 173 158 147
342 340 341 340 338 339 338 337 336 338 336 336 336 335 335 331 329 327 323 322 322 324 324 325 325 327 325 325 328 335 335 303 284 266 247 240 231 230 230 212 201 185 174 180 183 182 189 194 193 197 207 221 236 203 156 210 216 236 263 267 270 292 318 328 313 305 309 304 313 311 312 76 177 170 222 160 135 132 149 112 111 126 139 164 166 163 158 157
341 341 340 339 338 337 336 335 335 336 335 334 334 333 333 330 328 323 321 320 319 323 322 322 324 324 327 331 334 345 327 300 277 260 252 234 224 228 219 207 201 188 180 184 187 188 194 189 187 191 205 229 239 211 208 231 221 240 264 268 283 321 322 318 317 302 301 303 305 304 316 120 180 167 191 180 139 153 173 145 139 142 159 163 160 164 163 162
341 340 340 339 338 337 335 334 334 334 333 332 332 331 330 328 325 321 320 317 317 321 319 322 323 321 330 334 342 356 318 290 270 247 241 214 212 216 213 206 199 190 186 191 193 194 200 195 192 189 196 247 288 275 256 239 242 285 260 266 291 317 312 315 324 303 299 300 299 300 277 202 172 164 170 173 151 159 175 167 152 148 157 156 159 168 162 160
339 337 339 338 337 337 335 334 333 333 333 331 330 329 328 325 323 320 318 315 316 319 318 320 320 320 328 336 350 339 305 273 87 101 120 170 200 206 206 201 194 188 190 199 199 200 208 207 199 188 192 226 233 252 263 249 265 287 259 268 287 300 300 310 315 298 303 298 292 295 280 218 144 165 188 178 162 158 165 164 155 147 151 155 161 166 163 162
339 337 338 337 336 336 335 333 332 332 331 329 328 327 325 322 320 318 316 316 316 317 319 318 319 321 324 334 336 308 276 273 16 126 127 117 177 198 201 195 189 188 195 204 203 205 211 214 209 203 217 230 235 248 268 267 262 264 267 276 290 301 297 307 307 294 314 308 300 297 256 197 160 180 190 167 149 175 159 154 155 151 152 159 160 161 166 163
339 338 337 336 335 334 334 332 332 332 330 327 327 325 322 320 317 316 316 317 317 317 317 316 317 317 326 332 300 274 243 278 296 169 157 110 159 193 199 190 185 189 200 209 208 206 203 218 218 191 200 272 260 252 258 278 273 262 278 289 294 302 294 300 298 290 322 327 321 297 230 198 197 188 166 152 171 179 154 149 159 157 156 160 161 162 165 163
337 336 336 336 334 334 333 331 331 330 328 325 325 324 320 319 316 316 318 317 316 316 313 313 315 316 334 331 289 258 238 260 235 170 216 270 194 188 186 182 185 191 204 211 212 212 200 220 226 143 107 271 277 273 257 282 274 246 275 301 304 302 305 313 296 295 331 335 331 266 235 215 198 171 145 158 182 155 144 155 164 162 161 160 160 161 166 167
336 336 335 334 333 333 331 330 330 328 326 324 323 322 318 318 316 317 318 316 313 311 311 308 308 315 332 315 286 274 249 246 121 185 267 262 201 183 174 176 187 193 206 210 215 221 205 221 224 169 208 240 255 267 247 181 261 214 238 307 313 306 310 304 287 303 359 335 318 237 199 137 152 139 138 165 190 139 149 164 163 166 165 161 159 160 171 170
334 334 334 331 330 331 330 329 328 327 325 322 321 319 318 319 317 318 315 313 312 306 306 302 302 310 291 273 265 264 255 49 89 185 252 223 180 174 174 177 184 191 205 208 214 220 209 231 233 179 236 250 253 260 240 238 275 225 172 232 261 276 275 270 282 314 17 348 334 207 150 117 126 137 157 208 214 158 157 158 161 180 168 161 158 159 171 165
332 331 331 329 326 327 328 328 327 326 323 320 320 317 318 319 316 317 312 310 308 301 301 298 292 275 267 269 258 252 29 357 322 159 212 188 172 173 177 180 182 190 201 204 215 218 213 228 233 213 247 284 300 303 329 277 287 305 191 241 247 256 254 262 288 300 286 348 25 125 131 121 100 142 162 180 191 161 150 147 178 216 170 155 154 159 167 161
330 328 329 327 326 326 326 326 325 323 321 318 317 317 319 319 316 312 308 305 301 298 300 294 275 236 264 270 247 245 274 316 332 138 177 174 175 177 178 180 183 192 200 203 214 217 219 222 222 244 247 80 339 324 316 289 298 302 142 323 293 289 278 273 302 295 168 15 96 123 133 143 139 159 154 157 166 153 147 152 200 212 166 150 156 161 163 164
329 327 324 324 326 326 325 324 323 321 319 318 316 318 319 316 313 307 304 299 295 294 286 278 239 230 258 269 254 243 254 288 126 144 164 169 176 179 182 187 189 197 207 214 219 217 223 221 220 242 260 247 229 196 276 290 299 291 322 322 292 326 290 262 309 170 134 133 145 138 160 153 150 156 145 147 150 143 149 168 188 188 159 153 159 159 165 172
328 327 325 325 326 325 325 322 321 320 318 319 316 316 317 313 309 303 298 291 294 298 272 232 194 223 244 261 277 248 229 261 177 169 169 170 174 178 189 195 194 203 215 227 235 232 235 235 232 240 246 238 232 125 310 303 296 293 310 267 257 347 276 168 181 170 135 164 211 239 232 136 146 156 138 147 155 149 165 176 175 180 165 157 159 162 171 174
327 327 325 325 324 322 323 321 320 318 318 319 316 315 314 309 304 297 294 286 288 287 245 195 193 221 258 259 262 220 206 241 211 186 178 177 179 181 191 198 197 206 219 231 243 251 254 258 259 259 262 250 245 338 345 298 275 277 304 294 304 318 134 124 166 186 129 145 264 310 209 107 115 148 148 172 175 165 171 175 178 183 169 158 164 170 171 171
327 325 323 324 324 321 321 320 319 318 318 318 315 314 309 304 301 292 291 280 264 196 177 190 203 215 267 288 243 187 205 224 209 190 183 187 190 184 189 197 199 207 221 230 239 254 256 256 264 264 270 271 257 245 303 277 271 225 321 332 328 307 225 114 159 175 151 144 67 74 124 101 74 184 196 202 203 190 173 181 193 184 166 158 168 168 166 171
327 325 324 323 322 321 320 319 317 317 318 317 316 314 305 304 302 294 303 202 170 172 190 246 236 209 252 288 265 224 214 209 197 185 185 195 200 189 186 197 202 206 216 228 231 242 247 241 252 257 257 265 265 257 280 288 297 16 46 332 309 309 318 115 148 166 166 147 72 51 87 99 127 190 208 208 223 235 190 192 203 183 164 159 169 163 165 177
325 324 322 322 321 320 318 316 315 317 317 315 316 311 298 305 298 282 275 150 158 212 231 260 261 226 253 251 235 228 212 195 181 180 187 195 204 199 191 198 203 203 211 225 223 227 241 234 242 258 250 248 248 243 273 276 278 340 47 295 297 305 281 142 154 167 156 120 89 64 59 77 109 178 225 247 263 262 218 207 208 185 160 159 174 163 167 181
323 322 321 321 320 318 316 314 313 316 318 316 318 315 300 297 287 256 238 207 183 219 235 209 207 231 327 215 219 221 189 172 168 180 188 190 202 206 201 203 202 206 213 219 210 211 228 236 234 249 253 253 253 247 258 262 270 17 57 257 289 306 305 111 141 162 151 124 119 127 97 104 151 168 230 262 269 266 250 233 214 185 158 166 178 161 170 183
322 322 321 319 318 316 313 313 312 315 318 318 324 320 282 236 243 215 209 215 215 242 277 188 192 230 309 166 185 154 138 156 174 185 188 185 194 203 201 204 205 209 221 230 218 201 210 243 239 243 265 269 260 255 255 259 258 83 104 254 272 285 301 50 134 163 171 148 147 155 139 159 180 174 209 223 233 247 253 246 219 181 163 176 175 160 172 180
322 321 320 317 315 313 311 311 310 310 312 312 314 302 269 295 310 132 189 218 222 237 261 251 211 234 274 163 135 123 135 173 192 188 186 184 192 200 190 200 213 209 219 236 240 213 203 243 244 239 257 253 251 258 257 263 262 94 177 244 238 253 280 312 153 164 187 185 161 166 160 168 166 168 206 210 217 234 231 230 216 179 173 183 169 162 172 173
325 322 318 316 312 309 308 307 305 305 307 296 280 260 269 313 330 328 304 255 231 225 239 251 234 232 259 265 148 175 195 187 192 192 181 184 196 200 180 192 219 218 217 228 239 236 215 243 252 240 245 243 240 246 257 283 12 84 237 234 228 279 350 330 206 160 177 218 166 173 175 171 157 160 189 202 207 230 230 227 217 182 178 187 169 161 172 171
326 322 318 314 309 306 302 302 301 299 289 258 246 241 250 293 330 317 297 284 259 219 215 231 233 219 218 232 163 190 213 194 193 190 175 185 200 204 194 195 221 229 225 224 224 241 233 233 244 236 245 256 248 239 258 327 10 162 256 276 287 269 217 259 196 165 156 118 162 182 189 178 156 156 174 197 199 217 243 250 247 202 182 186 173 162 175 173
327 323 318 312 306 303 300 301 296 280 260 236 240 245 253 286 322 317 297 275 270 214 200 209 220 217 202 203 178 195 226 210 197 185 173 189 201 205 212 205 222 233 234 237 230 238 251 250 257 263 261 267 272 261 239 349 276 246 268 275 275 216 200 205 163 164 145 139 168 173 194 198 178 168 171 187 186 193 230 260 259 221 184 183 176 165 176 173
329 323 316 311 304 301 301 299 280 253 230 223 244 252 255 272 293 306 309 269 253 195 190 197 206 219 202 192 182 200 232 228 213 186 170 195 205 199 217 210 223 237 231 241 244 242 250 256 265 275 271 261 271 266 208 205 260 285 269 242 270 269 142 139 158 162 150 182 180 180 215 207 191 187 179 179 175 182 197 206 226 217 185 187 180 167 176 174
331 324 315 311 304 300 297 294 266 238 213 218 246 256 238 248 275 295 295 256 229 161 168 180 180 190 189 184 180 201 228 227 222 187 167 199 215 204 223 213 212 243 241 241 248 251 253 256 256 254 251 248 257 256 233 230 246 274 266 220 277 299 120 146 185 166 140 245 174 190 225 262 193 192 184 183 182 187 192 190 204 218 197 192 181 169 177 179
334 327 319 312 303 289 276 316 325 272 229 212 242 289 213 227 282 283 262 248 215 157 150 160 157 166 180 179 170 198 227 191 203 188 168 193 215 214 229 226 210 230 248 254 251 247 243 247 251 252 257 255 257 261 254 256 254 269 285 243 270 286 144 166 183 146 71 11 164 199 203 219 227 200 187 187 188 192 192 181 182 237 241 211 188 176 180 184
335 329 322 315 298 256 242 298 315 284 340 32 22 304 304 234 265 258 253 246 173 148 147 147 133 159 189 177 171 206 250 153 183 179 167 188 206 214 225 236 243 233 229 239 249 257 251 243 243 247 255 255 257 262 247 245 260 273 271 252 266 286 242 191 155 115 146 187 185 214 211 220 255 214 196 191 194 196 186 176 184 210 237 235 202 179 181 185
336 330 323 319 302 251 235 264 283 270 337 359 341 309 288 249 253 240 258 261 144 152 156 148 144 174 199 183 178 213 240 208 195 165 166 189 203 220 234 235 252 261 249 243 244 256 266 262 259 260 261 251 253 258 231 222 250 274 275 273 274 276 267 228 118 127 163 162 219 220 209 212 261 239 210 198 202 199 183 176 188 202 217 227 207 180 182 187
336 329 327 321 292 248 227 237 257 266 301 313 314 308 268 246 243 224 231 217 163 168 136 147 175 181 193 189 184 209 222 220 202 156 169 192 200 218 247 241 244 263 263 254 250 251 258 262 264 274 288 285 280 282 266 243 253 264 270 277 274 272 279 278 118 149 179 185 212 201 193 196 238 237 209 208 208 193 179 181 186 195 208 214 204 186 185 186
333 328 328 288 182 192 208 211 266 285 276 285 294 279 256 232 235 246 223 153 163 159 140 163 181 178 188 195 188 197 215 221 183 157 179 195 196 205 230 241 237 253 259 256 254 248 248 250 252 249 246 258 270 276 280 273 258 256 261 271 276 295 319 317 94 82 307 282 228 181 181 194 221 236 210 209 211 193 181 186 187 188 199 206 200 191 187 186
329 326 322 229 185 206 244 287 344 325 271 274 274 253 250 216 221 243 198 161 182 171 168 178 177 178 187 198 199 187 204 220 183 175 197 193 197 203 211 224 215 224 243 243 245 245 240 234 235 245 232 226 247 254 254 254 243 245 248 257 269 297 25 346 336 6 252 280 296 161 169 192 235 241 226 208 205 199 188 186 189 188 191 197 197 194 189 185
322 320 316 222 198 210 250 305 322 312 291 265 256 245 254 243 229 236 165 152 151 151 164 168 170 182 186 193 207 187 196 219 184 183 208 197 203 207 205 220 226 228 234 236 241 238 238 226 214 230 238 223 233 241 243 245 231 240 248 252 266 273 64 322 277 303 261 278 317 161 172 213 264 235 220 209 200 198 194 187 187 187 185 188 191 196 196 187
314 306 301 269 235 221 244 289 290 289 280 245 244 250 246 248 255 304 102 97 61 100 143 156 164 181 190 198 208 185 193 221 195 185 206 201 209 214 205 214 224 234 244 248 259 247 245 245 205 209 223 214 220 230 247 262 265 275 276 268 278 88 103 288 271 303 333 305 319 335 186 243 290 228 189 198 196 190 193 186 182 186 185 183 184 190 198 192
301 296 278 251 260 246 247 260 253 261 265 243 248 254 245 252 285 342 35 103 89 134 134 146 169 181 189 203 212 193 195 222 202 192 211 210 211 218 213 209 212 225 242 237 247 255 255 266 231 217 215 209 211 213 232 255 270 277 273 277 310 134 167 204 262 271 326 327 311 343 309 232 270 270 186 185 183 178 183 180 178 185 183 180 181 185 193 197
287 285 251 230 240 233 216 216 215 243 258 257 256 256 259 270 345 21 12 23 8 11 127 156 190 195 184 195 215 198 193 216 205 192 211 217 219 222 219 215 204 208 228 240 233 245 253 267 251 219 191 219 231 207 208 224 250 263 244 271 274 186 191 170 250 274 284 303 305 358 323 266 266 273 186 155 146 153 167 174 175 177 175 178 183 183 189 196
285 260 239 229 215 178 177 182 195 233 250 260 267 275 272 279 23 35 351 348 353 332 259 197 192 202 188 187 215 195 184 204 204 194 211 211 216 224 218 221 212 201 212 234 245 254 252 276 273 233 181 218 243 234 219 207 225 257 232 122 314 306 285 223 172 273 265 269 338 356 326 300 285 269 152 137 128 136 155 170 171 169 172 180 184 182 188 194
289 265 256 219 168 162 171 171 193 229 248 255 258 265 270 295 25 11 346 327 290 257 264 257 199 208 202 185 199 187 177 195 195 193 222 214 200 213 214 219 217 202 206 218 233 264 257 269 278 248 196 201 205 230 254 211 210 241 257 278 230 14 299 267 167 242 272 65 17 315 279 235 230 243 154 145 136 139 154 166 168 172 175 179 182 182 186 189
276 269 257 164 154 162 166 169 199 233 248 251 260 274 281 291 356 347 344 276 263 253 260 274 244 215 215 209 196 176 177 200 202 192 212 216 189 193 204 213 211 200 201 210 221 257 259 263 279 221 165 204 194 189 247 228 198 219 246 252 214 183 216 278 263 231 253 66 89 289 285 196 143 323 47 114 129 139 153 164 167 171 175 177 180 182 183 179
266 273 169 146 155 162 162 176 211 235 245 253 271 287 295 309 14 56 305 271 276 278 280 299 306 243 238 256 230 180 180 201 215 207 197 202 188 183 195 208 215 202 195 205 214 226 239 254 268 213 165 224 224 182 221 243 203 196 225 237 229 221 189 201 238 143 124 91 97 254 286 21 41 353 22 60 114 143 150 159 163 165 171 177 177 177 175 172
273 291 150 153 161 162 165 193 217 234 246 250 264 266 288 351 344 305 267 267 269 268 284 306 315 321 295 278 257 187 180 196 219 219 204 205 202 200 205 204 215 209 192 199 212 215 229 248 257 243 196 199 212 188 207 243 241 209 211 225 230 237 187 187 252 86 116 116 83 268 275 21 360 349 18 41 16 39 146 150 156 168 169 169 173 172 167 170
261 294 153 162 170 171 187 229 223 239 249 247 271 288 325 345 293 281 269 245 238 247 267 281 290 296 281 283 306 257 187 192 221 218 211 216 210 210 199 187 206 221 200 199 209 207 222 253 265 261 256 262 237 191 185 224 247 242 220 226 249 247 174 175 227 131 86 44 321 312 313 330 350 352 1 41 56 332 269 156 156 169 163 159 166 165 163 170
264 329 138 160 175 184 217 252 231 233 245 256 271 281 294 276 251 262 262 234 223 225 242 258 269 279 278 286 302 287 190 180 216 225 217 210 210 214 183 168 196 222 213 202 204 200 205 236 267 272 276 295 291 230 182 201 230 240 214 193 217 236 207 190 239 153 119 215 253 344 304 280 338 1 354 16 90 217 291 285 169 162 150 153 158 154 157 162
308 303 149 164 183 196 234 257 254 256 276 296 291 274 270 273 258 260 259 242 233 228 239 256 252 253 267 277 283 294 292 183 203 227 232 202 192 195 164 159 188 212 213 195 184 188 192 209 241 263 263 276 295 288 227 199 209 245 244 196 195 212 197 180 198 196 196 170 134 72 299 282 319 358 6 356 344 144 74 339 275 150 141 149 142 142 155 154
303 274 165 168 186 206 245 260 288 302 299 296 292 279 265 248 229 244 264 278 279 279 284 278 270 265 266 270 271 283 296 277 214 221 235 217 194 176 152 156 187 207 209 195 189 197 193 197 209 232 255 241 219 250 252 199 183 236 266 247 222 196 181 195 212 202 208 137 123 127 239 263 282 315 48 9 343 8 50 349 306 96 126 138 134 146 160 156
300 272 177 172 186 214 243 251 270 273 268 273 278 283 276 253 209 211 239 264 265 267 278 279 288 286 263 265 272 264 267 272 259 242 240 231 216 174 152 158 195 214 197 170 208 227 203 209 212 211 236 255 252 266 287 247 196 204 219 230 237 221 185 191 226 219 205 189 155 158 193 237 257 344 72 47 4 356 4 4 17 117 130 133 142 156 160 162
291 296 329 160 203 225 232 245 256 254 271 293 301 303 284 272 255 193 192 232 247 246 263 270 271 267 252 252 259 253 252 248 239 249 246 239 235 164 143 157 193 199 129 139 224 248 230 224 223 217 225 247 265 276 286 278 251 228 213 204 215 230 215 197 215 221 206 221 217 169 182 226 239 322 12 70 69 360 358 12 9 96 113 129 154 153 156 169
304 311 350 12 271 248 248 275 286 286 293 297 299 300 285 278 279 238 191 231 251 241 245 252 249 251 256 260 258 258 261 243 228 241 251 240 243 131 127 170 204 190 168 208 218 231 262 244 228 231 231 233 250 263 271 276 275 263 258 240 215 218 221 220 219 214 218 236 200 163 176 211 219 235 277 40 75 27 21 23 2 52 110 174 178 152 153 164
331 320 343 354 316 285 292 300 297 289 287 288 284 283 281 275 271 270 266 257 251 238 238 251 253 250 255 269 280 268 268 265 258 310 336 299 268 334 130 215 219 203 202 228 222 208 249 264 243 245 246 236 239 248 254 263 273 269 258 258 253 231 214 226 231 217 228 245 160 155 176 202 204 219 258 44 62 31 34 43 19 43 128 164 182 167 155 153
346 324 335 335 314 300 293 288 282 274 272 270 264 263 264 263 263 277 290 272 265 250 229 248 274 303 304 296 275 248 256 331 321 336 343 315 306 11 349 290 264 217 196 212 225 199 207 248 254 252 257 247 238 239 242 246 260 273 259 236 255 260 231 225 228 215 227 226 163 157 175 200 191 216 237 166 123 79 26 64 59 38 100 85 19 244 163 147
341 325 331 317 302 307 298 284 277 274 269 256 254 262 258 257 273 317 301 276 280 284 282 276 294 329 307 280 265 250 265 355 322 316 322 304 305 47 296 289 299 279 208 210 219 196 194 228 248 246 254 257 242 232 236 240 245 255 257 245 246 254 248 239 229 207 209 212 185 168 173 194 184 204 229 201 149 131 84 30 125 183 154 122 155 249 196 151
345 334 335 314 290 293 287 278 268 262 267 275 286 303 276 270 299 325 308 273 256 256 275 314 317 321 285 271 287 327 350 330 304 310 312 293 287 259 218 244 277 277 250 230 217 202 203 221 246 243 240 253 251 236 225 229 238 237 236 244 246 244 244 245 248 234 211 210 217 192 178 187 176 186 206 194 159 147 156 269 268 191 159 145 163 205 195 163